Location: Potawatomi Wildlife Park
(41.2308°N, 86.1050°W)
Time: 14:27:20
(UTC-05:00)

Hubble Space Telescope - Visible Passes

Search period start: 20 December 2014 00:00
Search period end: 30 December 2014 00:00
Orbit: 545 x 549 km, 28.5° (Epoch: 19 December)

Date Brightness Start Highest point End Pass type
(mag) Time Alt. Az. Time Alt. Az. Time Alt. Az.
20 Dec 3.5 18:07:07 10° SW 18:09:05 13° S 18:11:03 10° SSE visible
21 Dec 3.6 17:59:31 10° SSW 18:01:11 12° S 18:02:51 10° SSE visible
22 Dec 3.7 17:52:11 10° SSW 17:53:16 11° SSW 17:54:22 10° S visible
